DW5657 Weather Reports


Display with metric or nautical units.
time (UTC)temp
F
wind
direction
speed
MPH
gust
MPH
rain 1hr
in
rain 24hr
in
rain mn
in
humidity
%
barometer
mb
20260831214204 94 222 2.0 5.0 0.00 0.00 0.00 53 1015.4
20260831213705 94 249 3.0 6.0 0.00 0.00 0.00 52 1015.5
20260831213205 94 227 2.0 5.0 0.00 0.00 0.00 52 1015.7
20260831212703 94 204 3.0 6.0 0.00 0.00 0.00 53 1015.7
20260831212203 93 207 2.0 6.0 0.00 0.00 0.00 52 1015.7
20260831211704 93 224 2.0 6.0 0.00 0.00 0.00 52 1015.6
20260831210704 93 225 1.0 5.0 0.00 0.00 0.00 53 1015.7
20260831205705 93 224 1.0 7.0 0.00 0.00 0.00 53 1015.9
20260831205203 93 222 2.0 7.0 0.00 0.00 0.00 52 1015.9
20260831204704 93 250 2.0 6.0 0.00 0.00 0.00 52 1015.9
20260831204203 93 221 1.0 5.0 0.00 0.00 0.00 52 1016.0
20260831203704 92 331 3.0 9.0 0.00 0.00 0.00 52 1016.0
20260831203205 92 235 2.0 5.0 0.00 0.00 0.00 53 1016.1
20260831202704 92 228 2.0 6.0 0.00 0.00 0.00 53 1016.2
20260831201204 92 261 3.0 8.0 0.00 0.00 0.00 53 1016.2
20260831200704 92 230 2.0 8.0 0.00 0.00 0.00 56 1016.3
20260831200204 92 212 1.0 8.0 0.00 0.00 0.00 56 1016.4
20260831195704 92 240 2.0 3.0 0.00 0.00 0.00 55 1016.5
20260831195204 91 293 3.0 8.0 0.00 0.00 0.00 55 1016.7
20260831194705 91 246 3.0 8.0 0.00 0.00 0.00 55 1016.7
20260831194204 91 295 4.0 9.0 0.00 0.00 0.00 55 1016.8
20260831193704 91 205 5.0 10.0 0.00 0.00 0.00 56 1016.8
20260831193203 91 226 4.0 8.0 0.00 0.00 0.00 55 1016.9
20260831192705 91 248 4.0 7.0 0.00 0.00 0.00 56 1016.9
20260831192204 91 217 2.0 7.0 0.00 0.00 0.00 58 1016.8
20260831191703 91 244 2.0 5.0 0.00 0.00 0.00 59 1016.9
20260831190204 91 241 3.0 9.0 0.00 0.00 0.00 58 1017.1
20260831185704 91 240 2.0 7.0 0.00 0.00 0.00 58 1017.1
20260831184703 91 240 1.0 6.0 0.00 0.00 0.00 57 1017.3
20260831184204 91 227 2.0 6.0 0.00 0.00 0.00 57 1017.3
20260831183704 91 302 1.0 9.0 0.00 0.00 0.00 57 1017.4
20260831183204 91 216 5.0 9.0 0.00 0.00 0.00 57 1017.3
20260831182204 91 219 3.0 7.0 0.00 0.00 0.00 60 1017.3
20260831181703 90 257 2.0 6.0 0.00 0.00 0.00 60 1017.3
20260831181204 90 180 2.0 8.0 0.00 0.00 0.00 61 1017.4
20260831180704 90 288 1.0 3.0 0.00 0.00 0.00 60 1017.5
20260831180204 90 217 1.0 3.0 0.00 0.00 0.00 63 1017.6
20260831175204 90 232 2.0 6.0 0.00 0.00 0.00 62 1017.5
20260831174705 90 253 2.0 5.0 0.00 0.00 0.00 60 1017.6
20260831174204 90 259 2.0 6.0 0.00 0.00 0.00 63 1017.7
20260831173704 90 257 2.0 6.0 0.00 0.00 0.00 62 1017.7
20260831173204 90 211 2.0 6.0 0.00 0.00 0.00 62 1017.8
20260831172703 90 274 2.0 3.0 0.00 0.00 0.00 63 1017.8
20260831172204 90 266 1.0 3.0 0.00 0.00 0.00 63 1017.8
20260831171704 90 297 2.0 5.0 0.00 0.00 0.00 63 1017.8
20260831171204 90 219 5.0 9.0 0.00 0.00 0.00 64 1017.8
20260831170204 89 213 4.0 9.0 0.00 0.00 0.00 64 1017.8
20260831165704 89 294 3.0 9.0 0.00 0.00 0.00 64 1017.9
20260831164704 89 222 3.0 8.0 0.00 0.00 0.00 64 1018.0
20260831164204 89 210 5.0 12.0 0.00 0.00 0.00 63 1018.0
20260831163704 89 211 4.0 12.0 0.00 0.00 0.00 64 1018.1
20260831163203 89 202 3.0 7.0 0.00 0.00 0.00 64 1018.1
20260831162704 89 281 5.0 8.0 0.00 0.00 0.00 64 1018.1
20260831162204 89 239 3.0 7.0 0.00 0.00 0.00 65 1018.1
20260831161704 88 211 3.0 7.0 0.00 0.00 0.00 65 1018.1
20260831161203 88 212 3.0 8.0 0.00 0.00 0.00 65 1018.1
20260831160704 88 219 3.0 6.0 0.00 0.00 0.00 66 1018.1
20260831160204 87 241 3.0 7.0 0.00 0.00 0.00 68 1018.1
20260831155204 87 178 3.0 6.0 0.00 0.00 0.00 68 1018.0
20260831154704 86 211 2.0 7.0 0.00 0.00 0.00 69 1018.1
20260831154203 86 224 3.0 6.0 0.00 0.00 0.00 70 1018.0
20260831153705 85 181 2.0 8.0 0.00 0.00 0.00 69 1018.0
20260831153204 85 206 4.0 9.0 0.00 0.00 0.00 70 1018.0
20260831152703 85 232 5.0 10.0 0.00 0.00 0.00 69 1018.0
20260831152204 84 186 1.0 6.0 0.00 0.00 0.00 71 1017.9
20260831151705 84 206 4.0 7.0 0.00 0.00 0.00 71 1018.0
20260831151204 84 225 3.0 6.0 0.00 0.00 0.00 71 1018.0
20260831150705 84 206 3.0 8.0 0.00 0.00 0.00 71 1018.1
20260831150204 83 222 3.0 8.0 0.00 0.00 0.00 71 1018.1
20260831145703 83 227 4.0 9.0 0.00 0.00 0.00 72 1018.1
20260831145203 82 225 2.0 9.0 0.00 0.00 0.00 73 1018.1
20260831144704 82 242 3.0 7.0 0.00 0.00 0.00 75 1018.1
20260831144204 81 218 3.0 7.0 0.00 0.00 0.00 75 1018.1
20260831143704 81 228 2.0 5.0 0.00 0.00 0.00 76 1018.1
20260831143203 80 248 0.0 3.0 0.00 0.00 0.00 77 1018.0
20260831142203 80 120 2.0 5.0 0.00 0.00 0.00 77 1017.8
20260831141704 80 81 2.0 5.0 0.00 0.00 0.00 77 1017.8
20260831140704 79 44 0.0 1.0 0.00 0.00 0.00 77 1017.8
20260831140205 79 57 0.0 3.0 0.00 0.00 0.00 78 1017.9
20260831135704 79 63 1.0 5.0 0.00 0.00 0.00 78 1017.9
20260831135204 79 65 0.0 2.0 0.00 0.00 0.00 78 1017.8
20260831134204 79 40 0.0 2.0 0.00 0.00 0.00 78 1017.8
20260831133704 78 29 2.0 6.0 0.00 0.00 0.00 78 1017.8
20260831133203 78 29 2.0 5.0 0.00 0.00 0.00 78 1017.8
20260831132703 78 36 1.0 3.0 0.00 0.00 0.00 78 1017.9
20260831132204 78 33 0.0 0.0 0.00 0.00 0.00 79 1017.8
20260831131704 78 34 0.0 3.0 0.00 0.00 0.00 79 1017.7
20260831131203 78 35 1.0 3.0 0.00 0.00 0.00 79 1017.8
20260831130704 78 35 0.0 3.0 0.00 0.00 0.00 79 1017.7
20260831130203 77 56 1.0 3.0 0.00 0.00 0.00 79 1017.7
20260831125205 77 232 2.0 6.0 0.00 0.00 0.00 81 1017.6
20260831124703 76 213 1.0 5.0 0.00 0.00 0.00 81 1017.6
20260831124204 76 65 0.0 0.0 0.00 0.00 0.00 82 1017.6
20260831123705 76 47 0.0 0.0 0.00 0.00 0.00 82 1017.6
20260831123204 75 39 0.0 0.0 0.00 0.00 0.00 82 1017.5
20260831122203 75 34 0.0 0.0 0.00 0.00 0.00 82 1017.5
20260831121704 75 32 0.0 0.0 0.00 0.00 0.00 81 1017.5
20260831121204 75 33 0.0 0.0 0.00 0.00 0.00 81 1017.5
20260831120704 75 32 0.0 0.0 0.00 0.00 0.00 81 1017.5
20260831120205 75 34 0.0 0.0 0.00 0.00 0.00 81 1017.5
20260831115704 75 34 0.0 0.0 0.00 0.00 0.00 81 1017.5
20260831114704 75 34 0.0 0.0 0.00 0.00 0.00 81 1017.3
20260831114204 75 35 0.0 0.0 0.00 0.00 0.00 81 1017.2
20260831113705 75 35 0.0 0.0 0.00 0.00 0.00 80 1017.2
20260831113205 75 36 0.0 0.0 0.00 0.00 0.00 80 1017.2
20260831112704 75 36 0.0 0.0 0.00 0.00 0.00 80 1017.1
20260831112204 75 36 0.0 0.0 0.00 0.00 0.00 80 1017.1
20260831111704 75 36 0.0 0.0 0.00 0.00 0.00 80 1017.1
20260831111204 75 24 0.0 0.0 0.00 0.00 0.00 79 1017.0
20260831110704 75 24 0.0 0.0 0.00 0.00 0.00 79 1017.0
20260831105705 75 24 0.0 0.0 0.00 0.00 0.00 79 1016.9
20260831105204 75 24 0.0 0.0 0.00 0.00 0.00 79 1016.8
20260831104705 75 24 0.0 0.0 0.00 0.00 0.00 78 1016.8
20260831104204 75 24 0.0 0.0 0.00 0.00 0.00 78 1016.8
20260831103704 75 24 0.0 0.0 0.00 0.00 0.00 78 1016.8
20260831103204 76 23 0.0 0.0 0.00 0.00 0.00 78 1016.7
20260831102203 76 23 0.0 0.0 0.00 0.00 0.00 78 1016.6
20260831101205 76 24 0.0 0.0 0.00 0.00 0.00 78 1016.6
20260831100703 76 24 0.0 0.0 0.00 0.00 0.00 77 1016.5
20260831100204 76 23 0.0 0.0 0.00 0.00 0.00 77 1016.6
20260831095704 76 23 0.0 0.0 0.00 0.00 0.00 77 1016.6
20260831095203 76 23 0.0 0.0 0.00 0.00 0.00 77 1016.6
20260831094705 76 23 0.0 0.0 0.00 0.00 0.00 77 1016.6
20260831093704 76 23 0.0 0.0 0.00 0.00 0.00 77 1016.7
20260831093204 76 24 0.0 0.0 0.00 0.00 0.00 77 1016.6
20260831092204 76 24 0.0 0.0 0.00 0.00 0.00 77 1016.6
20260831091704 76 25 0.0 0.0 0.00 0.00 0.00 77 1016.6
20260831091204 76 25 0.0 0.0 0.00 0.00 0.00 77 1016.6
20260831090704 76 24 0.0 0.0 0.00 0.00 0.00 77 1016.6
20260831090204 76 24 0.0 0.0 0.00 0.00 0.00 77 1016.6
20260831085704 76 37 0.0 0.0 0.00 0.00 0.00 77 1016.6
20260831084704 75 37 0.0 0.0 0.00 0.00 0.00 77 1016.4
20260831083704 75 28 0.0 0.0 0.00 0.00 0.00 78 1016.3
20260831082704 75 41 0.0 1.0 0.00 0.00 0.00 78 1016.1
20260831082204 75 25 0.0 1.0 0.00 0.00 0.00 79 1016.0
20260831081704 75 25 0.0 1.0 0.00 0.00 0.00 79 1016.0
20260831081204 75 24 0.0 3.0 0.00 0.00 0.00 79 1015.9
20260831080703 75 21 0.0 1.0 0.00 0.00 0.00 80 1015.9
20260831080203 75 24 0.0 1.0 0.00 0.00 0.00 80 1015.9
20260831075704 75 24 0.0 0.0 0.00 0.00 0.00 80 1016.0
20260831075204 75 25 0.0 0.0 0.00 0.00 0.00 80 1016.0
20260831073704 75 32 0.0 0.0 0.00 0.00 0.00 81 1016.1
20260831073203 75 32 0.0 0.0 0.00 0.00 0.00 81 1016.1
20260831072705 75 32 0.0 0.0 0.00 0.00 0.00 81 1016.2
20260831072205 75 32 0.0 0.0 0.00 0.00 0.00 81 1016.2
20260831071704 75 32 0.0 0.0 0.00 0.00 0.00 81 1016.2
20260831071205 74 32 0.0 0.0 0.00 0.00 0.00 81 1016.2
20260831070705 74 32 0.0 0.0 0.00 0.00 0.00 81 1016.3
20260831070203 74 34 0.0 0.0 0.00 0.00 0.00 82 1016.3
20260831065704 74 34 0.0 0.0 0.00 0.00 0.00 82 1016.4
20260831065204 74 35 0.0 0.0 0.00 0.00 0.00 82 1016.4
20260831064205 74 40 0.0 0.0 0.00 0.00 0.00 82 1016.4
20260831063704 74 41 0.0 0.0 0.00 0.00 0.00 82 1016.6
20260831063204 74 43 0.0 0.0 0.00 0.00 0.00 82 1016.8
20260831061704 75 44 0.0 0.0 0.00 0.00 0.00 82 1017.0
20260831061204 75 44 0.0 0.0 0.00 0.00 0.00 82 1017.0
20260831060204 75 44 0.0 0.0 0.00 0.00 0.00 82 1017.1
20260831055204 75 44 0.0 0.0 0.00 0.00 0.00 80 1017.0
20260831053205 75 43 0.0 0.0 0.00 0.00 0.00 80 1016.9
20260831052704 76 43 0.0 0.0 0.00 0.00 0.00 79 1016.9
20260831052204 76 45 0.0 0.0 0.00 0.00 0.00 79 1016.9
20260831051704 76 43 0.0 0.0 0.00 0.00 0.00 79 1017.0
20260831051204 76 42 0.0 0.0 0.00 0.00 0.00 80 1017.0
20260831045704 76 42 0.0 0.0 0.00 0.00 0.00 78 1016.7
20260831045203 76 42 0.0 0.0 0.00 0.00 0.00 78 1016.7
20260831044704 77 41 0.0 0.0 0.00 0.00 0.00 78 1016.7
20260831043705 77 40 0.0 0.0 0.00 0.00 0.00 77 1016.8
20260831043204 77 39 0.0 0.0 0.00 0.00 0.00 77 1016.8
20260831042704 77 39 0.0 0.0 0.00 0.00 0.00 77 1016.9
20260831042204 77 53 0.0 0.0 0.00 0.00 0.00 77 1016.9
20260831041204 77 49 0.0 0.0 0.00 0.00 0.00 77 1016.9
20260831035704 78 45 0.0 0.0 0.00 0.00 0.00 76 1016.9
20260831035204 78 43 0.0 0.0 0.00 0.00 0.00 76 1016.9
20260831034704 78 44 0.0 0.0 0.00 0.00 0.00 75 1017.0
20260831034204 78 43 0.0 0.0 0.00 0.00 0.00 75 1017.1
20260831033705 78 44 0.0 0.0 0.00 0.00 0.00 75 1017.1
20260831033204 78 44 0.0 0.0 0.00 0.00 0.00 75 1017.1
20260831032204 78 48 0.0 0.0 0.00 0.00 0.00 74 1017.1
20260831031704 78 46 0.0 0.0 0.00 0.00 0.00 74 1017.0
20260831031204 78 45 0.0 0.0 0.00 0.00 0.00 74 1016.9
20260831030704 78 44 0.0 0.0 0.00 0.00 0.00 74 1017.0
20260831030204 78 43 0.0 0.0 0.00 0.00 0.00 73 1017.0
20260831025705 78 44 0.0 0.0 0.00 0.00 0.00 73 1017.0
20260831025204 79 43 0.0 0.0 0.00 0.00 0.00 72 1017.1
20260831024704 79 43 0.0 0.0 0.00 0.00 0.00 72 1017.0
20260831024204 79 44 0.0 0.0 0.00 0.00 0.00 71 1017.0
20260831023704 79 42 0.0 0.0 0.00 0.00 0.00 71 1017.0
20260831023205 79 43 0.0 0.0 0.00 0.00 0.00 70 1017.0
20260831022704 79 43 0.0 0.0 0.00 0.00 0.00 70 1017.0
20260831021703 79 43 0.0 0.0 0.00 0.00 0.00 68 1017.0
20260831021204 79 43 0.0 0.0 0.00 0.00 0.00 68 1017.0
20260831020704 79 41 0.0 0.0 0.00 0.00 0.00 69 1017.0
20260831015204 80 42 0.0 0.0 0.00 0.00 0.00 66 1016.9
20260831014704 80 42 0.0 0.0 0.00 0.00 0.00 66 1016.9
20260831013704 80 42 0.0 0.0 0.00 0.00 0.00 65 1016.9
20260831013204 81 43 0.0 0.0 0.00 0.00 0.00 65 1016.9
20260831012706 81 41 0.0 0.0 0.00 0.00 0.00 65 1016.9
20260831012204 81 37 0.0 0.0 0.00 0.00 0.00 65 1016.8
20260831011704 82 42 0.0 0.0 0.00 0.00 0.00 65 1016.7
20260831011204 82 43 0.0 0.0 0.00 0.00 0.00 65 1016.7
20260831010705 82 41 0.0 0.0 0.00 0.00 0.00 65 1016.7
20260831010205 82 38 0.0 0.0 0.00 0.00 0.00 64 1016.7
20260831005704 83 42 0.0 0.0 0.00 0.00 0.00 63 1016.6
20260831005204 83 40 0.0 0.0 0.00 0.00 0.00 62 1016.5
20260831004704 83 37 0.0 0.0 0.00 0.00 0.00 61 1016.3
20260831004205 84 36 0.0 0.0 0.00 0.00 0.00 61 1016.3
20260831003704 84 35 0.0 0.0 0.00 0.00 0.00 61 1016.3
20260831003204 84 32 0.0 0.0 0.00 0.00 0.00 59 1016.4
20260831002704 85 37 0.0 0.0 0.00 0.00 0.00 59 1016.3
20260831002204 85 40 0.0 0.0 0.00 0.00 0.00 59 1016.3
20260831001704 85 45 0.0 0.0 0.00 0.00 0.00 58 1016.3
20260831001204 85 50 0.0 0.0 0.00 0.00 0.00 58 1016.3
20260831000204 86 65 0.0 0.0 0.00 0.00 0.00 57 1016.2
20260830235704 86 72 0.0 0.0 0.00 0.00 0.00 56 1016.3
20260830235205 86 79 0.0 0.0 0.00 0.00 0.00 56 1016.2
20260830234704 87 79 0.0 0.0 0.00 0.00 0.00 56 1016.2
20260830234204 87 84 1.0 3.0 0.00 0.00 0.00 55 1016.1
20260830233704 87 87 1.0 3.0 0.00 0.00 0.00 55 1016.2
20260830232704 87 224 2.0 5.0 0.00 0.00 0.00 55 1016.0
20260830232205 87 199 0.0 3.0 0.00 0.00 0.00 55 1015.9
20260830231705 88 228 1.0 6.0 0.00 0.00 0.00 54 1015.9
20260830231206 88 223 2.0 6.0 0.00 0.00 0.00 54 1015.8
20260830230205 88 217 2.0 8.0 0.00 0.00 0.00 54 1015.6
20260830225704 88 213 1.0 3.0 0.00 0.00 0.00 54 1015.6
20260830225204 88 224 1.0 3.0 0.00 0.00 0.00 54 1015.6
20260830224705 88 218 2.0 5.0 0.00 0.00 0.00 54 1015.7
20260830224204 88 222 1.0 2.0 0.00 0.00 0.00 53 1015.7
20260830223205 88 206 2.0 3.0 0.00 0.00 0.00 53 1015.7
20260830222704 88 213 0.0 2.0 0.00 0.00 0.00 52 1015.6
20260830222204 88 232 1.0 3.0 0.00 0.00 0.00 52 1015.6
20260830221704 88 209 1.0 3.0 0.00 0.00 0.00 52 1015.5
20260830221204 88 180 1.0 5.0 0.00 0.00 0.00 51 1015.5
20260830220705 88 191 1.0 5.0 0.00 0.00 0.00 51 1015.6
20260830215705 89 223 3.0 6.0 0.00 0.00 0.00 50 1015.7
20260830214705 89 216 1.0 6.0 0.00 0.00 0.00 49 1015.8